Weather History for Wisconsin Rapids, WI

Change the Weather History Date:

Sunday, April 7, 2013

  Actual Average Record
Temperature  
Mean Temperature 40 °F -  
Max Temperature 46 °F 54 °F 81 °F (1991)
Min Temperature 34 °F 28 °F 2 °F (1982)
Degree Days  
Heating Degree Days 26    
Moisture  
Dew Point 30 °F    
Average Humidity 74    
Maximum Humidity 86    
Minimum Humidity 58    
Precipitation  
Precipitation 0.00 in - - ()
Sea Level Pressure  
Sea Level Pressure 29.88 in    
Wind  
Wind Speed 10 mph (WNW)    
Max Wind Speed 17 mph    
Max Gust Speed 25 mph    
Visibility 10 miles    
Events      
Averages and records for this station are not official NWS values.
T = Trace of Precipitation, MM = Missing Value Source: NWS Daily Summary

Daily Weather History Graph

Daily Weather History Graph

Search for Another Location

Airport:

Trip Planner

Search our weather history database for the weather conditions in past years. The results will help you decide how hot, cold, wet, or windy it might be!

Date:

Astronomy

Apr. 07, 2013 Rise Set
Actual Time 6:29 AM CDT 7:34 PM CDT
Civil Twilight 5:59 AM CDT 8:04 PM CDT
Nautical Twilight 5:23 AM CDT 8:39 PM CDT
Astronomical Twilight 4:46 AM CDT 9:17 PM CDT
Moon 4:52 AM CDT (4/7) 5:01 PM CDT (4/7)
Length of Visible Light 14h 04m
Length of Day
13h 05m
Waning Crescent, 8% of the Moon is Illuminated
Apr 7
Waning Crescent
Apr 10
New
Apr 18
First Quarter
Apr 25
Full
May 2
Last Quarter

Hourly Weather History & Observations

Time (CDT) Temp. Windchill Dew Point Humidity Pressure Visibility Wind Dir Wind Speed Gust Speed Precip Events Conditions
12:54 AM 37.0 °F 28.5 °F 33.1 °F 86% 29.66 in 10.0 mi WNW 13.8 mph 20.7 mph N/A   Overcast
1:54 AM 36.0 °F 26.0 °F 30.9 °F 82% 29.68 in 10.0 mi NW 17.3 mph 24.2 mph N/A   Overcast
2:54 AM 35.1 °F 25.5 °F 30.0 °F 82% 29.71 in 10.0 mi NW 15.0 mph 25.3 mph N/A   Overcast
3:14 AM 35.6 °F 28.0 °F 28.4 °F 75% 29.69 in 10.0 mi NW 10.4 mph 21.9 mph N/A   Overcast
3:54 AM 35.1 °F 26.9 °F 28.9 °F 78% 29.73 in 10.0 mi NW 11.5 mph - N/A   Overcast
4:54 AM 35.1 °F 27.9 °F 28.9 °F 78% 29.77 in 10.0 mi WNW 9.2 mph - N/A   Overcast
5:54 AM 34.0 °F 27.2 °F 28.9 °F 82% 29.80 in 10.0 mi WNW 8.1 mph - N/A   Overcast
6:54 AM 35.1 °F 28.6 °F 30.0 °F 82% 29.84 in 10.0 mi WNW 8.1 mph - N/A   Overcast
7:54 AM 35.1 °F 29.3 °F 30.0 °F 82% 29.88 in 10.0 mi West 6.9 mph - N/A   Overcast
8:54 AM 36.0 °F 30.3 °F 30.9 °F 82% 29.90 in 10.0 mi WNW 6.9 mph - N/A   Overcast
9:22 AM 35.6 °F 29.2 °F 30.2 °F 81% 29.88 in 10.0 mi NW 8.1 mph - N/A   Overcast
9:54 AM 37.0 °F 30.4 °F 30.0 °F 76% 29.92 in 10.0 mi NW 9.2 mph - N/A   Overcast
10:41 AM 37.4 °F 30.8 °F 30.2 °F 75% 29.92 in 10.0 mi NW 9.2 mph - N/A   Overcast
10:54 AM 37.9 °F 32.1 °F 30.0 °F 73% 29.96 in 10.0 mi NW 8.1 mph - N/A   Overcast
11:54 AM 39.0 °F 34.8 °F 30.0 °F 70% 29.98 in 10.0 mi NW 5.8 mph - N/A   Overcast
12:54 PM 39.0 °F 35.7 °F 30.0 °F 70% 29.99 in 10.0 mi West 4.6 mph - N/A   Overcast
1:54 PM 39.9 °F 35.1 °F 30.9 °F 70% 29.99 in 10.0 mi West 6.9 mph - N/A   Overcast
2:54 PM 42.1 °F 37.7 °F 30.9 °F 65% 29.98 in 10.0 mi NNW 6.9 mph - N/A   Overcast
3:54 PM 42.1 °F 40.2 °F 30.9 °F 65% 29.96 in 10.0 mi WSW 3.5 mph - N/A   Overcast
4:20 PM 42.8 °F 41.1 °F 30.2 °F 61% 29.93 in 10.0 mi SW 3.5 mph - N/A   Partly Cloudy
4:54 PM 44.1 °F 42.5 °F 30.9 °F 60% 29.95 in 10.0 mi SE 3.5 mph - N/A   Clear
5:54 PM 45.0 °F 43.5 °F 30.9 °F 58% 29.95 in 10.0 mi Variable 3.5 mph - N/A   Clear
6:54 PM 44.1 °F 40.8 °F 30.9 °F 60% 29.95 in 10.0 mi East 5.8 mph - N/A   Clear
7:54 PM 37.9 °F 35.5 °F 30.9 °F 76% 29.95 in 10.0 mi East 3.5 mph - N/A   Clear
8:54 PM 36.0 °F 31.1 °F 30.0 °F 79% 29.96 in 10.0 mi East 5.8 mph - N/A   Clear
9:54 PM 37.0 °F 31.6 °F 30.0 °F 76% 29.94 in 10.0 mi East 6.9 mph - N/A   Clear
10:54 PM 37.0 °F 31.0 °F 30.9 °F 79% 29.92 in 10.0 mi ESE 8.1 mph - N/A   Clear
11:54 PM 37.0 °F 30.4 °F 30.9 °F 79% 29.91 in 10.0 mi ESE 9.2 mph - N/A   Partly Cloudy